TITAN 3C TRANSTAGE DEB

基本信息
目录编号:
59983
目录名称:
TITAN 3C TRANSTAGE DEB
国际标识:
1968-081AR
轨道中心:
EARTH
物体状态:
在轨
发射日期:
1968-09-26 UTC
轨道信息
数据来源: 国际轨道数据
星历时间: 2026-07-10T16:26:59+0800
半长轴: 41667.58km
偏心率: 0.0209447
轨道倾角: 2.761°
近地点辐角: 18.565°
升交点赤经: 59.600°
平近点角: 341.968°
近地点: 34416.728km
远地点: 36162.158km
周期: 1410.773分钟
每日圈数: 1.020717
详细信息
发射场:
AFETR
轨道高度:
MEO
数据来源:
AOE Integration Group
参考系:
TEME
时间系统:
UTC
历元类型:
SGP4
2D轨道图
3D轨道图
轨道高度分析图
轨道倾角分析图
轨道综合分析图
查看轨道综合分析图